Погода Ворогово

Погода Ворогово : погода сейчас, прогноз погоды и архив. Всё, что Вы хотите узнать о погоде Ворогово!

Хотите узнать прогноз погоды Ворогово? Тогда Вам сюда: Погода Ворогово

Поиск расширенной информации на нашем сайте:

Другие новости

Новости СМИ2

Главная страница сайта

Новости сайта

03.07.2017

Напоминаем, что на нашем специализированном сайте Метеоцентр.Азия вы можете получить высокодетализированные автоматические прогнозы погоды по пунктам России, СНГ и мира в авиационном формате (включающие направление и скорость ветра, видимость, явления погоды, количество и форму облачности, нижнюю и верхнюю границу облачности).

Рекомендуем: срочно снять финскую сауну

Погода Ворогово - сегодня

Время (UTC), дата Ветер
(°,м/с) 
Видим.   Явления Облачность Т
(°С)
Тd
(°С)
f(%) Тe
(°С)
Pmin
(гПа)
dP
(гПа)
Po
(мм)
O2
(г/м3)
Тmin Tmax R s Состояние
почвы
12 16.04.18 //0 (С) //  н/о    н/о 
+2.8 -7.7 46 +3  999.6  -0.5  745  298    +3.2     
15 16.04.18 050 (СВ) н/о    н/о 
-0.3 -3.9 77 998.9  -0.7  745  301           
18 16.04.18 030 (СВ) н/о    н/о 
-0.5 -3.1 83 996.5  -2.4  743  300           
00 17.04.18 //0 (С) //  н/о    н/о 
-0.8 -0.8 100 -1  990.8  -2.6  739  299  -1.1    80  равномерный
сухой снег
100% 
03 17.04.18 170 (Ю) н/о    н/о 
+0.4 +0.4 100 -1  988.9  -1.8  737  297           
06 17.04.18 200 (Ю) 8-13{15}  н/о    н/о 
-3.9 -4.5 96 -9  992.4  3.3  740  303           
09 17.04.18 200 (Ю) 6-10{14}  н/о    н/о 
-5.4 -6.8 90 -10  995  2.5  742  306           
12 17.04.18 //0 (С) //-12{14}  н/о    н/о 
-4.9 -5.3 97 -5  998.2  3.2  744  306    +1.5     
15 17.04.18 280 (З) 5{12}  н/о    н/о 
-7.7 -8.4 95 -12  1002.7  4.4  747  311           
18 17.04.18 290 (З) н/о    н/о 
-7.8 -10 84 -11  1005.6  2.8  749  312           
21 17.04.18 300 (СЗ) н/о    н/о 
-11 -15.5 69 -14  1009.2  3.5  752  317           
00 18.04.18 //0 (С) //  н/о    н/о 
-12.8 -16.8 72 -13  1012.3  754  320  -12.9    84  равномерный
сухой снег
100% 
03 18.04.18 250 (З) н/о    н/о 
-10.5 -16.4 62 -14  1014.4  2.1  756  318           
06 18.04.18 240 (ЮЗ) н/о    н/о 
-7.3 -14.8 55 -10  1016  2.1  757  315           
09 18.04.18 250 (З) н/о    н/о 
-6.1 -14.7 51 -9  1017.1  1.1  758  314           
12 18.04.18 //0 (С) //  н/о    н/о 
-7.3 -14.3 57 -7  1018.3  1.1  759  315    -5.7       
15 18.04.18 250 (З) н/о    н/о 
-10.2 -15.9 63 -12  1019.1  0.8  760  319           
18 18.04.18 190 (Ю) н/о    н/о 
-15.1 -17.3 83 -17  1019.6  0.3  760  326           
21 18.04.18 140 (ЮВ) н/о    н/о 
-18.1 -19.9 86 -18  1019.7  0.1  760  329           
00 19.04.18 //0 (С) //  н/о    н/о 
-19.4 -21.5 83 -19  1020  0.3  760  331  -21.4      84  равномерный
сухой снег
100% 
03 19.04.18 170 (Ю) н/о    н/о 
-11.9 -16.5 69 -15  1020.1  0.2  760  322           
06 19.04.18 200 (Ю) н/о    н/о 
-5 -16.7 39 -8  1018.2  -1.7  759  313           
09 19.04.18 180 (Ю) н/о    н/о 
-3.7 -13.7 46 -7  1016.6  -1.5  758  311           
12 19.04.18 //0 (С) //  н/о    н/о 
-2.6 -16.7 33 -3  1015.7  -0.9  757  309    -2.3       
15 19.04.18 170 (Ю) н/о    н/о 
-6.2 -15.6 47 -9  1015.6  -0.2  757  313           
Время (UTC), дата Ветер
(°,м/с) 
Видим.   Явления Облачность Т
(°С)
Тd
(°С)
f(%) Тe
(°С)
Pmin
(гПа)
dP
(гПа)
Po
(мм)
O2
(г/м3)
Тmin Tmax R s Состояние
почвы

Для получения пояснительной информации подведите курсор к названию столбца.

ПОГОДА Ворогово - архив

Всё, что Вы хотите узнать о погоде Ворогово - удобно и подробно!

Выберите нужную дату (начиная с 1 января 2015* года) и нажмите кнопку "Найти".
Будут отображены архивные сводки погоды по пункту Ворогово, начиная с указанной даты.


Отображать данные в формате CSV (для использования в таблицах Excel)


Внимание! Наш архив погоды предназначен исключительно для личного некоммерческого использования в познавательных целях. Если Вам необходимы официальные справки о состоянии погоды (для производственных, юридических, коммерческих и т.п. целей), обращайтесь в органы Росгидромета.

*Примечание: данная дата относится к архиву по метеостанциям СССР (Россия, СНГ, Балтия).
Архив по метеостанциям Зарубежной Европы и Азии (кроме Китая) хранится 10 дней, по другим регионам земного шара (Китай, Африка, Америка, Австралия, Океания) - 1 день.

Ворогово - район местоположения метеостанции


Название, широта, долгота, высота метеостанции:
Ворогово 61°ш. 89.6°д. 49 м над ур. моря [Российская Федерация]

Дополнительная информация

В oтличие oт бoльшинства пoгoдных сайтoв мы публикуем пoдрoбную метеoинфoрмацию в детальнoм прoфессиoнальнoм фoрмате.

Характеристики температуры и влажнoсти вoздуха измеряются на высoте 2 м в тени вдали oт зданий и деревьев.
Скoрoсть ветра измеряется на высoте 10 м (на урoвне рoста челoвека скoрoсть ветра ниже в 1.5-2 раза). Если метеoстанция нахoдится в гoрoде или в лесу, тo скoрoсть ветра занижена на 2-4 м/с пo сравнению с oткрытым местoм. Скoрoсть ветра над акватoриями крупных рек и oзёр, а также на вершинах хoлмoв на 2-5 м/с выше, чем в oбычных услoвиях.
Атмoсфернoе давление в разных тoчках местнoсти мoжет значительнo oтличаться oт давления на метеoстанции, в зависимoсти oт услoвий рельефа (при пoдъёме на 10 м давление пoнижается примернo на 1 мм рт.ст.).